976  
ASUS41 KAKQ 261315  
RWRAKQ  
 
REGIONAL WEATHER ROUNDUP  
NATIONAL WEATHER SERVICE WAKEFIELD VA  
900 AM EDT WED APR 26 2017  
 
NOTE: "FAIR" INDICATES FEW OR NO CLOUDS BELOW 12,000 FEET WITH NO  
SIGNIFICANT WEATHER AND/OR S TO VISIBILITY
. * = DENOTES  
STATION MAY NOT REPORT PRECIPITATION (E.G., RAIN,SNOW,ETC.),
 
THUNDER OR FOG.  
 
VAZ042-051-052>054-056-261400-  
NORTHERN VIRGINIA  
 
CITY SKY/WX TMP DP RH WIND PRES REMARKS
 
WASH NATIONAL CLOUDY 60 57 89 NW9 29.77R  
DULLES CLOUDY 58 55 90 NW9 29.78R FOG  
FORT BELVOIR CLOUDY 60 55 84 NW8 29.77R  
QUANTICO CLOUDY 61 58 90 N10 29.78R  
FREDERICKSBRG* CLOUDY 60 60 98 NW3 29.78R  
STAFFORD* CLOUDY 59 58 96 NW8 29.82R  
WARRENTON CLOUDY 62 55 77 NW3 29.78R  
CULPEPER* CLOUDY 61 57 87 N5 29.79R  
MANASSAS* N/A 60 56 86 NW8 29.79R  
LEESBURG* CLOUDY 59 59 100 N7 29.79R  
WINCHESTER CLOUDY 55 54 94 NW7 29.79S  
FRONT ROYAL* CLOUDY 55 55 100 CALM 29.80R  
LURAY* PTSUNNY 55 55 100 CALM 29.81R  

 
 
VAZ048-049-060>072-079>083-261400-  
CENTRAL AND SOUTH CENTRAL VIRGINIA  
 
CITY SKY/WX TMP DP RH WIND PRES REMARKS
 
RICHMOND DRIZZLE 59 59 100 NW7 29.79R FOG  
CHESTERFIELD* CLOUDY 61 43 51 NW6 29.81R  
PETERSBURG* CLOUDY 60 56 85 NW7 29.80R  
HANOVER CLOUDY 59 56 89 NW6 29.80R FOG  
TAPPAHANNOCK* CLOUDY 60 60 100 W5 29.78R  
QUINTON* CLOUDY 59 59 100 NW5 29.77R  
CHARLOTTSVILLE SUNNY 62 55 77 CALM 29.78R  
GORDONSVILLE* SUNNY 60 56 87 CALM 29.79R  
ORANGE* SUNNY 61 55 82 CALM 29.78S  
LOUISA* MOSUNNY 63 59 88 CALM 29.78R  
BUMPASS* CLOUDY 59 57 94 CALM 29.78S  
FARMVILLE* SUNNY 62 57 84 W5 29.79R  
CREWE* FAIR 62 58 87 NW5 29.80R  
FORT PICKETT* FAIR 62 55 78 NW7 29.80R  
CHASE CITY* FAIR 61 58 90 W5 29.81R  
CLARKSVILLE* FAIR 61 57 88 CALM 29.81R  
SOUTH HILL* MOSUNNY 62 57 84 W3 29.86R  
LAWRENCEVILLE* FAIR 62 55 79 W7 29.80R  
EMPORIA* MOSUNNY 61 55 82 W5 29.81R  

 
 
VAZ088>098-261400-  
SOUTHEAST VIRGINIA  
 
CITY SKY/WX TMP DP RH WIND PRES REMARKS
 
NORFOLK CLOUDY 62 59 90 W6 29.77R  
VIRGINIA BEACH CLOUDY 61 57 87 W10 29.76R  
NORFOLK NAVAL CLOUDY 62 58 86 NW10 29.78R  
WEST POINT* CLOUDY 60 59 97 W6 29.78R  
SALUDA* CLOUDY 60 59 99 W8 29.76R  
NEWPORT NEWS CLOUDY 61 58 90 NW6 29.77R  
LANGLEY AFB CLOUDY 61 60 96 NW10 29.77R  
FORT EUSTIS CLOUDY 62 59 88 NW9 29.75R  
WILLIAMSBURG* PTSUNNY 63 63 100 NW7 29.78R  
HR EXEC AP* CLOUDY 61 57 88 NW5 29.76S  
FRANKLIN* CLOUDY 60 58 91 W10 29.80R  
US460-WAKEFLD CLOUDY 60 59 96 VRB5 29.78R  

 
 
VAZ020-022-025-037-045-261400-  
WEST CENTRAL AND SOUTHWEST VIRGINIA  
 
CITY SKY/WX TMP DP RH WIND PRES REMARKS
 
STAUNTON* MOSUNNY 54 53 94 CALM 29.83R  
WAYNESBORO* PTSUNNY 55 54 97 N8 29.81R  
HOT SPRINGS VA FOG 52 52 100 W13 29.86R VSB 1/4  
LYNCHBURG SUNNY 59 55 88 SW3 29.82  
DANVILLE SUNNY 61 59 93 SW5 29.82R  
SOUTH BOSTON* FAIR 63 58 84 SW5 29.81R  
MARTINSVILLE SUNNY 63 57 82 CALM 29.85S  
ROANOKE MOSUNNY 61 57 87 W9 29.84R  
BLACKSBURG CLOUDY 56 55 97 S3 29.89R FOG  
DUBLIN* SUNNY 60 57 91 SW5 29.87R  
MARION* MOSUNNY 57 56 96 CALM 29.90R  
HILLSVILLE* FOG 54 54 100 CALM 29.87R VSB<1/4  
RICHLANDS* FAIR 58 55 89 CALM 29.90R  
WISE* SUNNY 61 59 94 SW5 29.91R  
ABINGDON* SUNNY 58 58 100 CALM 29.89R  

 
 
MDZ021>025-VAZ099-100-261400-  
SOUTHERN MARYLAND AND THE DELMARVA PENINSULA  
 
CITY SKY/WX TMP DP RH WIND PRES REMARKS
 
PATUXENT RIVER CLOUDY 59 59 100 NW10 29.75R  
BAY BRIDGE APT CLOUDY 57 57 100 N7 29.75R FOG  
LEONARDTOWN CLOUDY 57 55 94 NW6 29.77R  
DOVER CLOUDY 57 57 100 N8 29.71S FOG  
GEORGETOWN FOG N/A N/A N/A E8 29.72R VSB 1  
EASTON CLOUDY 59 57 94 N5 29.77R FOG  
CAMBRIDGE CLOUDY 57 57 100 NW7 29.74R FOG  
SALISBURY CLOUDY 59 59 100 NW7 29.71R FOG  
OCEAN CITY FOG 58 57 97 N6 29.71R VSB 1  
WALLOPS ISLAND RAIN 58 58 100 W9 29.72R FOG  
ACCOMACK* CLOUDY 59 54 85 NW9G18 29.74R  

 
 
NCZ012>017-030>032-261400-  
NORTH CENTRAL AND EASTERN NORTH CAROLINA  
 
CITY SKY/WX TMP DP RH WIND PRES REMARKS
 
ROANOKE RAPIDS PTSUNNY 61 57 88 CALM 29.81R  
RALEIGH PTSUNNY 63 56 78 W3 29.82R  
ELIZABETH CITY CLOUDY 62 61 96 W12 29.79R  
AHOSKIE* N/A 60 58 92 CALM 29.80S  
EDENTON* NOT AVBL  
CURRITUCK* CLOUDY 62 62 100 W8 29.79R FOG  
KILL DEVIL HLS CLOUDY 64 63 98 CALM 29.77R  
MANTEO CLOUDY 63 61 94 NW7 29.79R  
CAPE HATTERAS CLOUDY 66 61 84 W9G17 29.80R HAZE  
TARBORO* NOT AVBL  
GOLDSBORO MOSUNNY 63 61 94 NW6 29.81R  
WASHINGTON CLOUDY 63 59 87 W3 29.81R  
GREENVILLE PTSUNNY 63 59 88 W5 29.84R  
NEW BERN CLOUDY 64 62 93 W7 29.82R  
WILMINGTON CLOUDY 65 59 81 W5 29.83R  

 
 
VAZ048-261400-  
ELSEWHERE  
 
CITY SKY/WX TMP DP RH WIND PRES REMARKS
 
HARRISBURG PA CLOUDY 57 56 96 N5 29.77R  
BALTIMORE DRIZZLE 58 57 97 NW6 29.76R FOG  
ANNAPOLIS CLOUDY 59 57 93 NW7 29.75R FOG  
ANDREWS AFB CLOUDY 58 56 94 NW8 29.76R  
PHILADELPHIA DRIZZLE 57 56 96 NE8 29.75R FOG  
HENDERSON NC SUNNY 60 54 81 W3 29.81R  
GREENSBORO CLOUDY 60 58 92 W6 29.84R  
ROCKY MOUNT MOSUNNY 63 58 83 NW5 29.82R  

 
 
VAZ100-261400-  
MARINE  
 
STATION/POSITION TIME TEMP WIND PRES WAVE SWELL
 
AIR SEA DIR/SP/G HT/PER HT/PER  
(UTC) (F) (DEG/KT/KT) (MB) (FT/S) (FT/S)  
CAPE MAY NJ 1248 57 55 50/ 7/ 10 1005.8R  
LEWES DE 1242 54 55 90/ 7/ 8 1006.2R  
15NM E FENWICK I 1150 53 51 30/ 4/ 6 1005.7 7/ 9 7/ 9  
OCEAN-CITY-INLET 1242 54 53 20/ 7/ 9 1006.4R  
WACHAPREAGUE VA 1242 58 59 240/ 4/ 9 1006.5R  
THOMAS POINT MD 1200 57 57 350/ 9/ 10 N/A  
GOOSES REEF MD 1300 57 53 320/ 10/ 12 1008.3 1/ 2  
COVE POINT MD 1242 57 330/ 12/ 14 1007.8R  
SOLOMONS ISLAND 1242 58 60 320/ 8/ 11 N/A  
BISHOPS HEAD MD 1242 58 60 300/ 11/ 15 1007.2R  
PINEY POINT MD 1248 340/ 12/ 13 N/A  
POTOMAC MD 1300 59 60 330/ 12/ 14 1006.6 1/ 2  
CAMBRIDGE MD 1242 57 61 N/A  
LEWISETTA VA 1242 59 61 330/ 8/ 10 1007.2R  
RAPPAHANNOCK LGT 1248 280/ 12/ 13 1007.8R  
STINGRAY PT 1250 60 320/ 10/ 14 1007.5R  
YORK RVR RNG VA 1242 60 300/ 8/ 10 1007.0R  
YORKTOWN VA 1242 60 63 290/ 8/ 12 1007.5R  
JAMESTOWN VA 1300 61 66 300/ 8/ 10 N/A 0  
DOMINION TERM VA 1242 61 300/ 12/ 13 1007.9R  
KIPTOPEKE VA 1248 60 290/ 12/ 14 N/A  
CHES BAY BRIDGE 1242 60 61 300/ 11/ 13 1007.7R  
CAPE HENRY VA 1242 60 290/ 11/ 14 N/A  
WILLOUBY STN VA 1242 60 310/ 10/ 11 1008.9R  
S CRANEY ISL VA 1242 61 280/ 6/ 9 1007.7R  
CAPE HENRY BUOY 1242 56 N/A 5/10 2/11  
1ST LANDING BUOY 1300 61 61 1008.0 3/ 5  
CAPE CHARLES BUO 1251 56 N/A 5/10 2/11  
64NM E OF VA BCH 1150 56 54 250/ 6/ 8 1007.2 7/10 7/10  
DUCK PIER NC 1242 62 59 280/ 9/ 12 1007.8R  
44100 DUCK FRF 1235 56 N/A 5/10 2/11  
44056 DUCK FRF 1230 60 N/A 5/ 9 2/11  
OREGON INLET NC 1242 64 64 270/ 5/ 7 1008.4R  
HATTERAS NC 1242 65 68 250/ 11/ 15 1008.7R  
DIAMOND SHLS NC 1150 69 77 270/ 14/ 17 1007.9 7/10 5/10  
CAPE LOOKOUT NC 1200 63 290/ 12/ 13 1008.8R  

 
 
 
CLICK HERE TO GO TO PREVIOUS BULLETINS.

The Nexlab VA Page
The Nexlab NC Page
The Nexlab MD Page Main Text Page